Change the Weather History Date:

Thursday, July 11, 2013

  Actual Average Record
Temperature  
Mean Temperature 81 °F -  
Max Temperature 100 °F 92 °F 102 °F (2003)
Min Temperature 62 °F 59 °F 57 °F (1997)
Cooling Degree Days 16    
Growing Degree Days 31 (Base 50)    
Moisture  
Dew Point 46 °F    
Average Humidity 28    
Maximum Humidity 63    
Minimum Humidity 6    
Precipitation  
Precipitation 0.00 in - - ()
Sea Level Pressure  
Sea Level Pressure 29.88 in    
Wind  
Wind Speed 2 mph ()    
Max Wind Speed 13 mph    
Max Gust Speed 17 mph    
Visibility 11.9 miles    
Events      
Averages and records for this station are not official NWS values.
T = Trace of Precipitation, MM = Missing Value Source: Averaged Metar Reports

Daily Weather History Graph

Daily Weather History Graph

Search for Another Location

Airport or City:

Trip Planner

Search our weather history database for the weather conditions in past years. The results will help you decide how hot, cold, wet, or windy it might be!

Date:

Astronomy

Jul. 11, 2013 Rise Set
Actual Time 7:04 AM CEST 9:36 PM CEST
Civil Twilight 6:33 AM CEST 10:07 PM CEST
Nautical Twilight 5:56 AM CEST 10:44 PM CEST
Astronomical Twilight 5:14 AM CEST 11:26 PM CEST
Moon 10:03 AM CEST (7/11) 11:16 PM CEST (7/11)
Length of Visible Light 15h 33m
Length of Day
14h 32m
Waxing Crescent, 9% of the Moon is Illuminated
Jul 11
Waxing Crescent
Jul 16
First Quarter
Jul 22
Full
Jul 29
Last Quarter
Aug 6
New

Hourly Weather History & Observations

Time (CEST) Temp. Dew Point Humidity Pressure Visibility Wind Dir Wind Speed Gust Speed Precip Events Conditions
12:00 AM 78 °F 47 °F 23% 29.85 in 19 mi Calm Calm - -  
12:00 AM 78.8 °F 48.2 °F 34% 29.95 in - Calm Calm - N/A   Clear
1:00 AM 68 °F 49 °F 41% 29.87 in 19 mi Calm Calm - -  
2:00 AM 72 °F 49 °F 32% 29.88 in 19 mi Calm Calm - -  
3:00 AM 70 °F 52 °F 42% 29.87 in 9 mi NW 1.2 mph - -  
4:00 AM 68 °F 49 °F 41% 29.87 in 19 mi Calm Calm - -  
5:00 AM 63 °F 47 °F 45% 29.89 in 15 mi Calm Calm - -  
6:00 AM 64 °F 47 °F 43% 29.88 in 19 mi Calm Calm - -  
6:00 AM 64.4 °F 50.0 °F 59% 29.92 in - Calm Calm - N/A   Clear
6:30 AM 64.4 °F 48.2 °F 56% 29.92 in - Variable 2.3 mph - N/A   Clear
7:00 AM 63 °F 47 °F 45% 29.89 in 15 mi Calm Calm - -  
7:00 AM 62.6 °F 48.2 °F 59% 29.92 in - Calm Calm - N/A   Clear
7:30 AM 62.6 °F 50.0 °F 63% 29.92 in - Variable 1.2 mph - N/A   Clear
8:00 AM 65 °F 47 °F 42% 29.89 in 9 mi Calm Calm - -  
8:00 AM 64.4 °F 50.0 °F 59% 29.95 in - Variable 1.2 mph - N/A   Clear
8:30 AM 68.0 °F 51.8 °F 56% 29.95 in - Calm Calm - N/A   Clear
9:00 AM 76 °F 53 °F 34% 29.86 in 12 mi Calm Calm - -  
9:00 AM 69.8 °F 53.6 °F 56% 29.95 in - Calm Calm - N/A   Clear
9:30 AM 71.6 °F 55.4 °F 57% 29.95 in - Calm Calm - N/A   Clear
10:00 AM 76 °F 53 °F 34% 29.86 in 12 mi Calm Calm - -  
10:30 AM 78.8 °F 51.8 °F 39% 29.95 in - Calm Calm - N/A   Clear
11:00 AM 84 °F 48 °F 19% 29.82 in 12 mi Calm Calm - -  
11:00 AM 84.2 °F 48.2 °F 29% 29.95 in - Calm Calm - N/A   Clear
11:30 AM 86.0 °F 50.0 °F 29% 29.95 in - Calm Calm - N/A   Clear
12:00 PM 89 °F 49 °F 16% 29.80 in 17 mi Calm Calm - -  
12:00 PM 89.6 °F 48.2 °F 24% 29.95 in - Calm Calm - N/A   Clear
12:30 PM 89.6 °F 48.2 °F 24% 29.92 in - Variable 2.3 mph - N/A   Clear
1:00 PM 92 °F 48 °F 14% 29.78 in 11 mi NNE 2.3 mph - -  
1:00 PM 93.2 °F 50.0 °F 23% 29.92 in - Calm Calm - N/A   Clear
1:30 PM 93.2 °F 50.0 °F 23% 29.92 in - NE 4.6 mph - N/A   Clear
2:00 PM 95 °F 46 °F 11% 29.76 in 12 mi NNE 3.5 mph - -  
2:00 PM 95.0 °F 48.2 °F 20% 29.92 in - Variable 3.5 mph - N/A   Clear
2:30 PM 95.0 °F 44.6 °F 18% 29.92 in - SW 4.6 mph - N/A   Clear
3:00 PM 97 °F 45 °F 10% 29.74 in 12 mi North 3.5 mph - -  
3:00 PM 96.8 °F 46.4 °F 18% 29.89 in - Variable 3.5 mph - N/A   Clear
3:30 PM 98.6 °F 46.4 °F 17% 29.89 in - West 9.2 mph - N/A   Clear
4:00 PM 100 °F 43 °F 8% 29.73 in 9 mi West 11.5 mph - -  
4:00 PM 98.6 °F 42.8 °F 15% 29.89 in - West 11.5 mph - N/A   Clear
4:30 PM 98.6 °F 42.8 °F 15% 29.89 in - Variable 5.8 mph 17.3 mph N/A   Clear
5:00 PM 99 °F 41 °F 7% 29.73 in 9 mi WSW 11.5 mph - -  
5:00 PM 98.6 °F 41.0 °F 14% 29.89 in 6.2 mi West 10.4 mph - N/A   Partly Cloudy
5:30 PM 98.6 °F 41.0 °F 14% 29.89 in 6.2 mi WSW 10.4 mph - N/A   Partly Cloudy
6:00 PM 98 °F 37 °F 6% 29.73 in 9 mi WSW 12.7 mph - -  
6:00 PM 98.6 °F 37.4 °F 12% 29.89 in 6.2 mi WSW 12.7 mph - N/A   Partly Cloudy
6:30 PM 96.8 °F 39.2 °F 14% 29.89 in 6.2 mi WSW 11.5 mph - N/A   Partly Cloudy
7:00 PM 97 °F 40 °F 7% 29.73 in 15 mi WSW 11.5 mph - -  
7:00 PM 96.8 °F 39.2 °F 14% 29.89 in 6.2 mi WSW 10.4 mph - N/A   Partly Cloudy
7:30 PM 96.8 °F 42.8 °F 16% 29.89 in 6.2 mi SW 10.4 mph - N/A   Partly Cloudy
8:00 PM 65 °F 50 °F 48% 29.93 in 14 mi Calm Calm - -  
8:00 PM 95.0 °F 42.8 °F 16% 29.89 in 6.2 mi WSW 10.4 mph - N/A   Partly Cloudy
8:30 PM 93.2 °F 44.6 °F 19% 29.89 in - WSW 10.4 mph - N/A   Clear
9:00 PM 90 °F 41 °F 10% 29.77 in 12 mi SW 10.4 mph - -  
9:00 PM 89.6 °F 41.0 °F 18% 29.89 in - WSW 10.4 mph - N/A   Clear
9:30 PM 87.8 °F 41.0 °F 19% 29.92 in - SW 9.2 mph - N/A   Clear
10:00 PM 85 °F 39 °F 11% 29.81 in 13 mi SSW 6.9 mph - -  
10:00 PM 86.0 °F 39.2 °F 19% 29.92 in - SW 8.1 mph - N/A   Clear
10:30 PM 82.4 °F 41.0 °F 23% 29.92 in - South 3.5 mph - N/A   Clear
11:00 PM 76 °F 50 °F 29% 29.88 in 12 mi Calm Calm - -  
11:00 PM 82.4 °F 42.8 °F 25% 29.95 in - Calm Calm - N/A   Clear